GW0093 Weather Reports


time (UTC)temp
C
wind
direction
speed
KPH
gust
KPH
rain 1hr
cm
rain 24hr
cm
rain mn
cm
humidity
%
barometer
mb
20260504173805 23 0 0.0 0.0 0.00 0.00 0.00 38 1017.6
20260504172805 23 0 0.0 0.0 0.00 0.00 0.00 38 1017.6
20260504172305 23 0 0.0 0.0 0.00 0.00 0.00 38 1017.6
20260504171805 23 0 0.0 0.0 0.00 0.00 0.00 38 1017.6
20260504171304 23 0 0.0 0.0 0.00 0.00 0.00 38 1017.6
20260504170805 23 0 0.0 0.0 0.00 0.00 0.00 38 1017.6
20260504170305 23 0 0.0 0.0 0.00 0.00 0.00 38 1017.6
20260504160304 23 0 0.0 0.0 0.00 0.00 0.00 42 1017.9
20260504150805 21 0 0.0 0.0 0.00 0.00 0.00 50 1018.3
20260504150305 21 0 0.0 0.0 0.00 0.00 0.00 55 1018.3
20260504141304 18 0 0.0 0.0 0.00 0.00 0.00 67 1018.3
20260504140804 18 0 0.0 0.0 0.00 0.00 0.00 67 1018.3
20260504140305 18 0 0.0 0.0 0.00 0.00 0.00 73 1018.3
20260504130804 14 0 0.0 0.0 0.00 0.00 0.00 86 1018.3
20260504130304 14 0 0.0 0.0 0.00 0.00 0.00 86 1018.3
20260504120304 10 0 0.0 0.0 0.00 0.00 0.00 92 1017.9
20260504110303 10 0 0.0 0.0 0.00 0.00 0.00 96 1017.6
20260504100304 10 0 0.0 0.0 0.00 0.00 0.00 96 1017.9
20260504081806 11 0 0.0 0.0 0.00 0.00 0.00 92 1017.9
20260504081306 11 0 0.0 0.0 0.00 0.00 0.00 92 1017.9
20260504080805 11 0 0.0 0.0 0.00 0.00 0.00 92 1017.9
20260504080305 11 0 0.0 0.0 0.00 0.00 0.00 92 1017.9
20260504070306 12 0 0.0 0.0 0.00 0.00 0.00 89 1017.9
20260504045806 14 0 0.0 0.0 0.00 0.00 0.00 83 1019.3
20260504045305 14 0 0.0 0.0 0.00 0.00 0.00 83 1019.3
20260504044806 14 0 0.0 0.0 0.00 0.00 0.00 83 1019.3
20260504044306 14 0 0.0 0.0 0.00 0.00 0.00 83 1019.3
20260504043806 14 0 0.0 0.0 0.00 0.00 0.00 83 1019.3
20260504042806 14 0 0.0 0.0 0.00 0.00 0.00 83 1019.3
20260504042306 14 0 0.0 0.0 0.00 0.00 0.00 83 1019.3
20260504041806 14 0 0.0 0.0 0.00 0.00 0.00 83 1019.3
20260504040305 14 0 0.0 0.0 0.00 0.00 0.00 83 1019.3
20260504035806 15 0 0.0 0.0 0.00 0.00 0.00 80 1019.0
20260504035306 15 0 0.0 0.0 0.00 0.00 0.00 80 1019.0
20260504034805 15 0 0.0 0.0 0.00 0.00 0.00 80 1019.0
20260504034306 15 0 0.0 0.0 0.00 0.00 0.00 80 1019.0
20260504033806 15 0 0.0 0.0 0.00 0.00 0.00 80 1019.0
20260504033306 15 0 0.0 0.0 0.00 0.00 0.00 80 1019.0
20260504032805 15 0 0.0 0.0 0.00 0.00 0.00 80 1019.0
20260504032305 15 0 0.0 0.0 0.00 0.00 0.00 80 1019.0
20260504031806 15 0 0.0 0.0 0.00 0.00 0.00 80 1019.0
20260504031305 15 0 0.0 0.0 0.00 0.00 0.00 80 1019.0
20260504030306 15 0 0.0 0.0 0.00 0.00 0.00 80 1019.0
20260504025306 16 0 0.0 0.0 0.00 0.00 0.00 72 1018.6
20260504024805 16 0 0.0 0.0 0.00 0.00 0.00 72 1018.6
20260504023806 16 0 0.0 0.0 0.00 0.00 0.00 72 1018.6
20260504023306 16 0 0.0 0.0 0.00 0.00 0.00 72 1018.6
20260504022805 16 0 0.0 0.0 0.00 0.00 0.00 72 1018.6
20260504022305 16 0 0.0 0.0 0.00 0.00 0.00 72 1018.6
20260504021805 16 0 0.0 0.0 0.00 0.00 0.00 72 1018.6
20260504021306 16 0 0.0 0.0 0.00 0.00 0.00 72 1018.6
20260504020806 16 0 0.0 0.0 0.00 0.00 0.00 72 1018.6
20260504020305 16 0 0.0 0.0 0.00 0.00 0.00 72 1018.6
20260504015806 18 0 0.0 0.0 0.00 0.00 0.00 65 1018.3
20260504014805 18 0 0.0 0.0 0.00 0.00 0.00 65 1018.3
20260504014306 18 0 0.0 0.0 0.00 0.00 0.00 65 1018.3
20260504013805 18 0 0.0 0.0 0.00 0.00 0.00 65 1018.3
20260504013306 18 0 0.0 0.0 0.00 0.00 0.00 65 1018.3
20260504012305 18 0 0.0 0.0 0.00 0.00 0.00 65 1018.3
20260504011806 18 0 0.0 0.0 0.00 0.00 0.00 65 1018.3
20260504011305 18 0 0.0 0.0 0.00 0.00 0.00 65 1018.3
20260504010805 18 0 0.0 0.0 0.00 0.00 0.00 65 1018.3
20260504010305 18 0 0.0 0.0 0.00 0.00 0.00 58 1018.3
20260504005804 21 0 0.0 0.0 0.00 0.00 0.00 42 1017.9
20260504004805 21 0 0.0 0.0 0.00 0.00 0.00 42 1017.9
20260504004306 21 0 0.0 0.0 0.00 0.00 0.00 42 1017.9
20260504003806 21 0 0.0 0.0 0.00 0.00 0.00 42 1017.9
20260504003305 21 0 0.0 0.0 0.00 0.00 0.00 42 1017.9
20260504002805 21 0 0.0 0.0 0.00 0.00 0.00 42 1017.9
20260504002305 21 0 0.0 0.0 0.00 0.00 0.00 42 1017.9
20260504001806 21 0 0.0 0.0 0.00 0.00 0.00 42 1017.9
20260504001305 21 0 0.0 0.0 0.00 0.00 0.00 42 1017.9
20260504000805 21 0 0.0 0.0 0.00 0.00 0.00 42 1017.9
20260504000305 21 0 0.0 0.0 0.00 0.00 0.00 42 1017.9
20260503235306 22 0 0.0 0.0 0.00 0.00 0.00 39 1018.3
20260503234806 22 0 0.0 0.0 0.00 0.00 0.00 39 1018.3
20260503233305 22 0 0.0 0.0 0.00 0.00 0.00 39 1018.3
20260503232306 22 0 0.0 0.0 0.00 0.00 0.00 39 1018.3
20260503231805 22 0 0.0 0.0 0.00 0.00 0.00 39 1018.3
20260503231305 22 0 0.0 0.0 0.00 0.00 0.00 39 1018.3
20260503230805 22 0 0.0 0.0 0.00 0.00 0.00 39 1018.3
20260503230304 22 0 0.0 0.0 0.00 0.00 0.00 39 1018.3
20260503225805 23 0 0.0 0.0 0.00 0.00 0.00 36 1018.6
20260503225305 23 0 0.0 0.0 0.00 0.00 0.00 36 1018.6
20260503224805 23 0 0.0 0.0 0.00 0.00 0.00 36 1018.6
20260503224305 23 0 0.0 0.0 0.00 0.00 0.00 36 1018.6
20260503223805 23 0 0.0 0.0 0.00 0.00 0.00 36 1018.6
20260503223305 23 0 0.0 0.0 0.00 0.00 0.00 36 1018.6
20260503222805 23 0 0.0 0.0 0.00 0.00 0.00 36 1018.6
20260503222305 23 0 0.0 0.0 0.00 0.00 0.00 36 1018.6
20260503221304 23 0 0.0 0.0 0.00 0.00 0.00 36 1018.6
20260503220805 23 0 0.0 0.0 0.00 0.00 0.00 36 1018.6
20260503220305 23 0 0.0 0.0 0.00 0.00 0.00 36 1018.6
20260503215805 23 0 0.0 0.0 0.00 0.00 0.00 35 1019.3
20260503215306 23 0 0.0 0.0 0.00 0.00 0.00 35 1019.3
20260503214805 23 0 0.0 0.0 0.00 0.00 0.00 35 1019.3
20260503214306 23 0 0.0 0.0 0.00 0.00 0.00 35 1019.3
20260503213805 23 0 0.0 0.0 0.00 0.00 0.00 35 1019.3
20260503212805 23 0 0.0 0.0 0.00 0.00 0.00 35 1019.3
20260503212306 23 0 0.0 0.0 0.00 0.00 0.00 35 1019.3
20260503211805 23 0 0.0 0.0 0.00 0.00 0.00 35 1019.3
20260503211305 23 0 0.0 0.0 0.00 0.00 0.00 35 1019.3
20260503210305 23 0 0.0 0.0 0.00 0.00 0.00 35 1019.3
20260503205805 23 0 0.0 0.0 0.00 0.00 0.00 34 1020.0
20260503205305 23 0 0.0 0.0 0.00 0.00 0.00 34 1020.0
20260503204805 23 0 0.0 0.0 0.00 0.00 0.00 34 1020.0
20260503204304 23 0 0.0 0.0 0.00 0.00 0.00 34 1020.0
20260503203804 23 0 0.0 0.0 0.00 0.00 0.00 34 1020.0
20260503203305 23 0 0.0 0.0 0.00 0.00 0.00 34 1020.0
20260503202305 23 0 0.0 0.0 0.00 0.00 0.00 34 1020.0
20260503201805 23 0 0.0 0.0 0.00 0.00 0.00 34 1020.0
20260503201305 23 0 0.0 0.0 0.00 0.00 0.00 34 1020.0
20260503200305 23 0 0.0 0.0 0.00 0.00 0.00 34 1020.0
20260503195805 23 0 0.0 0.0 0.00 0.00 0.00 29 1021.0
20260503195305 23 0 0.0 0.0 0.00 0.00 0.00 29 1021.0
20260503194305 23 0 0.0 0.0 0.00 0.00 0.00 29 1021.0
20260503193805 23 0 0.0 0.0 0.00 0.00 0.00 29 1021.0
20260503193306 23 0 0.0 0.0 0.00 0.00 0.00 29 1021.0
20260503192805 23 0 0.0 0.0 0.00 0.00 0.00 29 1021.0
20260503192305 23 0 0.0 0.0 0.00 0.00 0.00 29 1021.0
20260503191804 23 0 0.0 0.0 0.00 0.00 0.00 29 1021.0
20260503190805 23 0 0.0 0.0 0.00 0.00 0.00 29 1021.0
20260503190305 23 0 0.0 0.0 0.00 0.00 0.00 29 1021.0
20260503185804 23 0 0.0 0.0 0.00 0.00 0.00 30 1021.3
20260503185305 23 0 0.0 0.0 0.00 0.00 0.00 30 1021.3
20260503184804 23 0 0.0 0.0 0.00 0.00 0.00 30 1021.3
20260503183804 23 0 0.0 0.0 0.00 0.00 0.00 30 1021.3
20260503183304 23 0 0.0 0.0 0.00 0.00 0.00 30 1021.3
20260503182805 23 0 0.0 0.0 0.00 0.00 0.00 30 1021.3
20260503181305 23 0 0.0 0.0 0.00 0.00 0.00 30 1021.3
20260503180804 23 0 0.0 0.0 0.00 0.00 0.00 30 1021.3
20260503180304 23 0 0.0 0.0 0.00 0.00 0.00 30 1021.3
20260503175804 23 0 0.0 0.0 0.00 0.00 0.00 31 1022.7
20260503175305 23 0 0.0 0.0 0.00 0.00 0.00 31 1022.7
20260503174805 23 0 0.0 0.0 0.00 0.00 0.00 31 1022.7